Location: Juzet
(42.9779°N, 0.7597°E)
Time: 18:11:42
(UTC+00:00)

AQUA - Pass Details

Date: 14 July 2020
Orbit: 701 x 704 km, 98.2° (Epoch: 12 August)

Event Time Altitude Azimuth Distance (km) Brightness Sun altitude
Rises 01:27:53 0° 19° (NNE) 3,102 8.7 -22.5°
Reaches altitude 10° 01:30:14 10° 25° (NNE) 2,178 7.5 -22.3°
Maximum altitude 01:34:50 47° 99° (E) 933 4.5 -22.0°
Enters shadow 01:36:14 36° 144° (SE) 1,110 4.6 -21.9°
